IV3CVE-H1 Weather Reports


Display with metric or nautical units.
time (UTC)temp
F
wind
direction
speed
MPH
gust
MPH
rain 1hr
in
rain 24hr
in
rain mn
in
humidity
%
barometer
mb
20260506221515 59 74 3.0 6.0 0.00 0.26 0.00 87 1009.0
20260506220517 59 73 1.0 5.0 0.00 0.27 0.00 87 1009.0
20260506215517 59 73 2.0 5.0 0.00 0.28 0.00 87 1009.0
20260506214517 59 68 3.0 5.0 0.00 0.28 0.00 87 1009.0
20260506213517 59 124 2.0 3.0 0.00 0.28 0.00 87 1009.1
20260506212517 59 124 1.0 3.0 0.00 0.28 0.00 87 1009.1
20260506211516 59 126 2.0 3.0 0.00 0.28 0.00 86 1009.1
20260506210516 59 124 0.0 1.0 0.00 0.28 0.00 87 1009.2
20260506205516 59 126 1.0 5.0 0.00 0.28 0.00 86 1009.2
20260506204535 59 102 2.0 5.0 0.00 0.28 0.00 87 1009.1
20260506203515 59 112 2.0 4.0 0.00 0.28 0.00 87 1009.0
20260506202515 60 123 2.0 4.0 0.00 0.28 0.00 87 1009.0
20260506201517 60 124 1.0 3.0 0.00 0.28 0.00 87 1008.9
20260506200516 60 138 2.0 3.0 0.00 0.29 0.00 88 1008.9
20260506195515 60 138 2.0 3.0 0.00 0.29 0.00 87 1008.8
20260506194535 61 138 1.0 3.0 0.00 0.30 0.00 87 1008.6
20260506193515 61 145 1.0 3.0 0.00 0.30 0.00 87 1008.5
20260506192518 61 154 2.0 4.0 0.00 0.30 0.00 87 1008.5
20260506191517 61 146 2.0 5.0 0.00 0.30 0.00 87 1008.4
20260506190517 61 152 2.0 5.0 0.00 0.30 0.00 87 1008.2
20260506185516 62 134 3.0 8.0 0.00 0.30 0.00 87 1008.0
20260506184516 62 128 3.0 7.0 0.00 0.30 0.00 87 1008.0
20260506183516 62 126 2.0 6.0 0.00 0.30 0.00 87 1008.1
20260506182536 62 125 3.0 6.0 0.00 0.30 0.00 87 1008.1
20260506181515 62 132 2.0 4.0 0.00 0.30 0.00 87 1008.0
20260506180515 62 135 1.0 4.0 0.00 0.30 0.00 87 1008.0
20260506175515 62 145 2.0 5.0 0.00 0.30 0.00 87 1008.0
20260506174538 62 137 2.0 5.0 0.00 0.30 0.00 87 1008.0
20260506173517 62 154 2.0 5.0 0.00 0.31 0.00 87 1007.9
20260506172517 62 158 1.0 5.0 0.00 0.31 0.00 87 1007.9
20260506171516 62 154 2.0 5.0 0.00 0.31 0.00 87 1007.8
20260506170516 62 151 1.0 3.0 0.00 0.31 0.00 88 1007.7
20260506165516 61 152 2.0 4.0 0.01 0.31 0.00 88 1007.7
20260506164516 61 178 1.0 4.0 0.03 0.31 0.00 88 1007.8
20260506163515 61 141 2.0 5.0 0.04 0.31 0.00 88 1007.8
20260506162515 61 147 3.0 6.0 0.07 0.31 0.00 88 1007.8
20260506161515 61 156 2.0 8.0 0.10 0.31 0.00 88 1007.7
20260506160536 61 158 4.0 9.0 0.13 0.31 0.17 88 1007.7
20260506155516 62 162 5.0 12.0 0.13 0.31 0.16 89 1007.7
20260506154515 62 154 6.0 17.0 0.12 0.29 0.13 89 1007.7
20260506153515 62 159 3.0 14.0 0.11 0.29 0.13 90 1007.7
20260506152515 63 132 4.0 10.0 0.08 0.27 0.09 89 1007.8
20260506151537 63 131 3.0 7.0 0.05 0.24 0.06 89 1007.8
20260506150517 63 132 3.0 12.0 0.02 0.21 0.04 90 1007.8
20260506145517 63 133 3.0 8.0 0.01 0.20 0.02 90 1007.8
20260506144517 64 127 3.0 9.0 0.00 0.20 0.02 89 1007.8
20260506143517 64 125 6.0 11.0 0.00 0.21 0.02 89 1007.9
20260506142516 64 120 5.0 11.0 0.00 0.23 0.02 89 1008.0
20260506141516 64 121 6.0 10.0 0.00 0.24 0.02 89 1008.1
20260506140515 65 107 5.0 10.0 0.00 0.25 0.02 89 1008.1
20260506135536 64 124 5.0 9.0 0.00 0.26 0.02 89 1008.2
20260506134515 64 125 5.0 11.0 0.00 0.28 0.02 89 1008.4
20260506133517 63 132 5.0 10.0 0.01 0.28 0.02 89 1008.4
20260506132517 63 140 5.0 11.0 0.01 0.30 0.02 89 1008.5
20260506131517 63 132 5.0 11.0 0.01 0.30 0.02 90 1008.5
20260506130517 63 131 5.0 11.0 0.02 0.31 0.02 90 1008.7
20260506125516 63 143 5.0 15.0 0.02 0.31 0.02 89 1008.7
20260506124536 63 150 6.0 15.0 0.02 0.31 0.02 89 1008.7
20260506123517 64 134 4.0 9.0 0.01 0.31 0.01 89 1008.7
20260506122516 64 143 3.0 9.0 0.01 0.31 0.01 89 1008.6
20260506121515 64 177 3.0 10.0 0.01 0.31 0.01 89 1008.6
20260506120516 64 177 4.0 9.0 0.00 0.30 0.05 89 1008.6
20260506115516 64 153 4.0 9.0 0.00 0.30 0.05 89 1008.7
20260506114516 64 145 4.0 10.0 0.00 0.30 0.05 89 1008.7
20260506113516 64 145 6.0 13.0 0.01 0.30 0.05 89 1008.7
20260506112515 63 142 4.0 9.0 0.02 0.31 0.05 89 1008.7
20260506111556 63 152 4.0 13.0 0.02 0.31 0.05 88 1008.7
20260506110515 63 136 5.0 10.0 0.02 0.31 0.05 89 1008.8
20260506105517 63 133 7.0 12.0 0.02 0.31 0.05 89 1008.8
20260506104517 63 139 6.0 14.0 0.03 0.31 0.05 88 1009.0
20260506103516 63 134 4.0 12.0 0.02 0.31 0.04 88 1009.0
20260506102516 63 127 5.0 10.0 0.02 0.31 0.03 89 1009.0
20260506101516 63 121 4.0 8.0 0.02 0.31 0.03 88 1009.1
20260506100536 63 126 4.0 8.0 0.02 0.31 0.03 88 1009.3
20260506095516 62 125 4.0 8.0 0.02 0.30 0.02 88 1009.4
20260506094515 62 115 2.0 7.0 0.01 0.29 0.02 88 1009.4
20260506093515 62 117 4.0 10.0 0.01 0.29 0.02 89 1009.4
20260506092515 62 113 6.0 11.0 0.00 0.28 0.01 89 1009.3
20260506091517 62 116 6.0 10.0 0.01 0.28 0.01 88 1009.3
20260506090537 62 129 4.0 10.0 0.01 0.28 0.01 88 1009.2
20260506085517 62 120 4.0 7.0 0.01 0.28 0.01 86 1009.1
20260506084516 62 115 4.0 7.0 0.01 0.28 0.01 86 1009.1
20260506083536 61 114 3.0 7.0 0.02 0.28 0.01 86 1009.0
20260506082536 61 124 2.0 6.0 0.02 0.28 0.01 86 1009.0
20260506081516 61 110 3.0 6.0 0.02 0.28 0.00 86 1008.9
20260506080515 61 85 2.0 6.0 0.02 0.28 0.00 86 1008.8
20260506073516 60 67 3.0 6.0 0.02 0.27 0.04 87 1009.0
20260506072516 60 67 4.0 7.0 0.01 0.26 0.03 87 1009.1
20260506071516 60 55 2.0 9.0 0.01 0.26 0.03 86 1009.0
20260506070556 60 51 5.0 8.0 0.01 0.25 0.02 87 1009.1
20260506062517 59 40 2.0 6.0 0.02 0.25 0.02 87 1009.1
20260506061517 59 31 3.0 6.0 0.02 0.25 0.02 87 1009.1
20260506060516 59 33 2.0 7.0 0.02 0.24 0.02 87 1009.0
20260506050556 59 26 2.0 6.0 0.00 0.23 0.00 87 1009.1
20260506044517 58 40 2.0 7.0 0.00 0.23 0.00 87 1009.0
20260506043537 58 48 4.0 6.0 0.00 0.23 0.00 87 1009.1
20260506042517 58 15 3.0 6.0 0.00 0.23 0.00 87 1009.1
20260506041516 57 22 3.0 7.0 0.00 0.23 0.00 87 1009.0
20260506040516 57 27 2.0 5.0 0.00 0.23 0.00 87 1009.0
20260506035517 57 25 2.0 5.0 0.00 0.23 0.00 87 1009.3
20260506034537 58 25 3.0 6.0 0.00 0.23 0.00 87 1009.3
20260506033517 58 28 0.0 5.0 0.00 0.23 0.00 87 1009.3
20260506032537 58 26 3.0 5.0 0.00 0.23 0.00 87 1009.4
20260506031516 58 36 2.0 6.0 0.00 0.23 0.00 87 1009.5
20260506030556 58 32 2.0 6.0 0.00 0.23 0.00 87 1009.6
20260506025516 58 18 3.0 6.0 0.00 0.23 0.00 87 1009.6
20260506024516 58 40 3.0 5.0 0.00 0.23 0.00 87 1009.8
20260506023515 58 30 4.0 6.0 0.00 0.23 0.00 87 1009.9
20260506022516 58 32 2.0 6.0 0.00 0.23 0.00 87 1010.0
20260506021515 58 34 2.0 5.0 0.00 0.23 0.00 87 1010.0
20260506020517 58 33 2.0 5.0 0.00 0.23 0.00 87 1010.0
20260506015517 58 26 1.0 5.0 0.00 0.23 0.00 87 1010.1
20260506014517 58 32 2.0 6.0 0.00 0.23 0.00 87 1010.0
20260506013516 58 17 3.0 6.0 0.00 0.23 0.00 87 1010.1
20260506012516 57 40 2.0 4.0 0.00 0.23 0.00 88 1010.1
20260506011516 57 21 2.0 4.0 0.00 0.23 0.00 88 1010.1
20260506010516 57 27 2.0 5.0 0.00 0.23 0.00 88 1010.0
20260506005516 57 25 2.0 8.0 0.00 0.23 0.00 88 1009.9
20260506004515 57 17 4.0 6.0 0.00 0.23 0.00 88 1010.0
20260506003515 57 23 1.0 4.0 0.00 0.23 0.00 88 1010.1
20260506002515 57 25 3.0 7.0 0.00 0.23 0.00 88 1010.1
20260506001518 57 12 3.0 6.0 0.00 0.23 0.00 88 1010.1
20260506000537 57 30 5.0 7.0 0.00 0.23 0.00 88 1010.2
20260505235557 57 15 5.0 7.0 0.00 0.23 0.00 88 1010.4
20260505234536 57 352 3.0 5.0 0.00 0.23 0.03 88 1010.6
20260505233515 57 11 1.0 5.0 0.00 0.23 0.03 88 1010.7
20260505232516 57 33 2.0 5.0 0.00 0.23 0.03 88 1010.8
20260505231517 57 18 2.0 5.0 0.00 0.23 0.03 88 1010.8
20260505230517 57 41 3.0 7.0 0.01 0.23 0.03 88 1010.8
20260505225516 57 17 2.0 5.0 0.02 0.23 0.03 88 1010.8
20260505224516 57 36 4.0 6.0 0.02 0.23 0.03 88 1010.8
20260505223516 57 2 3.0 5.0 0.02 0.23 0.03 88 1011.0
20260505222516 57 7 3.0 5.0 0.02 0.23 0.03 88 1011.1